AirNav   ATP
 
 1128 users online  

4CL8 Hanford Community Medical Center Helistop
Hanford, California, USA

GOING TO HANFORD?


FAA INFORMATION EFFECTIVE 24 MAY 2018

Location

FAA Identifier: 4CL8
Lat/Long: 36-19-47.2000N / 119-39-34.4000W
36-19.786667N / 119-39.573333W
36.3297778 / -119.6595556
(estimated)
Elevation: 251 ft. / 77 m (estimated)
Variation: 15E (1990)
Time zone: UTC -7 (UTC -8 during Standard Time)
Zip code: 93230

Heliport Operations

Heliport use: Private use. Permission required prior to landing
Activation date: 05/1993
Control tower: no
ARTCC: OAKLAND CENTER
FSS: RANCHO MURIETA FLIGHT SERVICE STATION
Attendance: CONTINUOUS
Wind indicator: yes
Segmented circle: no
Lights: FOR PERIMETER LGTS CALL 209-582-9000.

Heliport Communications

WX ASOS at HJO (1.7 nm SE): 134.75 (559-585-8076)
WX AWOS-3PT at VIS (13 nm E): 119.925 (559-651-2418)
WX AWOS-3 at NLC (14 nm W): 121.575 (559-998-2336)
WX AWOS-3PT at TLR (19 nm SE): 120.0 (559-686-2613)

Nearby radio navigation aids

VOR radial/distance  VOR name  Freq  Var
VISr239/8.9VISALIA VOR/DME109.4016E
CZQr152/34.1CLOVIS VORTAC112.9015E
TTEr293/39.8TULE VOR/DME109.2016E

 
NDB name  Hdg/Dist  Freq  Var  ID
SALYER FARMS323/17.020516ECOR -.-. --- .-.

Heliport Services

Runway Information

Helipad H1

Dimensions: 55 x 55 ft. / 17 x 17 m
Surface: concrete, in good condition
Runway edge lights: PERIMETER LGTS.
Latitude: 36-19.786667N
Longitude: 119-39.573333W
Elevation: 251.0 ft.
Traffic pattern: leftleft

Heliport Ownership and Management from official FAA records

Ownership: Privately-owned
Owner: HANFORD COMMUNITY MEDICAL CTR
450 GREENFIELD AVE
HANFORD, CA 93232
Phone 559-469-7484
Manager: RICHARD ROSE
450 GREENFIELD AVE
HANFORD, CA 93230
Phone 559-585-5413
ADDITIONAL CONTACT - STEVEN LOEWEN - 559-573-6641

Instrument Procedures

There are no published instrument procedures at 4CL8.

Some nearby airports with instrument procedures:

KHJO - Hanford Municipal Airport (2 nm SE)
KVIS - Visalia Municipal Airport (13 nm E)
KNLC - Lemoore Naval Air Station (Reeves Field) (14 nm W)
KTLR - Mefford Field Airport (19 nm SE)
KFCH - Fresno Chandler Executive Airport (25 nm N)
 
Loc | Ops | Rwys | IFR | FBO | Links
Com | Nav | Svcs | Stats | Notes

AirNav Hotels Sweepstakes
 
Area around 4CL8 (Hanford Community Medical Center Helistop)
 
Road maps at: MapQuest Bing Google
 
Aerial photo
No photo
 
Sectional chart

 
Airport distance calculator
Flying to Hanford Community Medical Center Helistop? Find the distance to fly.

From to 4CL8

Sunrise and sunset
Times for 24-May-2018
 Local
(UTC-7)
 Zulu
(UTC)
Morning civil twilight05:1812:18
Sunrise05:4712:47
Sunset20:0403:04
Evening civil twilight20:3303:33

Current date and time
Zulu (UTC)  24-May-2018 22:25:17
Local (UTC-7)  24-May-2018 15:25:17
 
METAR
KHJO 
2nm E 
242153Z AUTO VRB05KT 10SM CLR 27/11 A2996 RMK AO2 SLP147 T02670106
KVIS 
13nm E 
242156Z AUTO 24008KT 10SM CLR 26/12 A2996 RMK AO2 SLP150 T02610117
KNLC 
14nm W 
242156Z 26006KT 10SM FEW050 FEW210 27/11 A2996 RMK AO2 SLP142 RH/37 T02670111
TAF
KVIS 
13nm E 
241730Z 2418/2518 30008KT P6SM SCT200 FM250000 29009G15KT P6SM SCT100 BKN200 FM251200 32012G18KT P6SM BKN050 OVC100
KNLC 
14nm W 
2415/2515 33010KT 9999 SKC QNH2995INS FM242000 33008KT 9999 FEW040 FEW200 QNH2987INS FM250300 35012G20KT 9999 FEW040 SCT200 540009 540907 QNH2983INS T30/2423Z T13/2512Z FS30012
NOTAMs
Click for the latest NOTAMs
NOTAMs are issued by the DoD/FAA and will open in a separate window not controlled by AirNav.

 

 
 

Would you like to see your business listed on this page?

 If your business provides an interesting product or service to pilots, flight crews, aircraft, or users of the Hanford Community Medical Center Helistop, you should consider listing it here.  To start the listing process, click on the button below
 
Add a business
 

Other Pages about Hanford Community Medical Center Helistop

Update a link
 
Copyright © AirNav, LLC. All rights reserved. Privacy Policy  Contact